Location: ?????
(31.8092°N, 35.2590°E)
Time: 17:34:59
(UTC+00:00)

Okean 1 Rocket - Pass Details

Date: 20 June 2021
Orbit: 607 x 633 km, 82.5° (Epoch: 01 August)

Event Time Altitude Azimuth Distance (km) Brightness Sun altitude
Rises 18:23:32 0° 345° (NNW) 2,885 7.5 -17.4°
Reaches altitude 10° 18:25:50 10° 338° (NNW) 1,980 6.7 -17.7°
Maximum altitude 18:29:58 42° 268° (W) 888 4.2 -18.4°
Enters shadow 18:33:31 14° 200° (SSW) 1,760 5.1 -18.9°
